This is the latest recevied weather packets stored in our database for station/object M0TJX-1. If no packets are shown the sender has not sent any weather packets the latest 10 day(s).
| Time | Temp. | Humidity | Pressure | Rain* | Wind** | Luminosity | Snow |
|---|---|---|---|---|---|---|---|
| 1787680525 | 24.44° C | 50% | 1010.4 hPa | 0 mm | - | - | - |
| 1787679625 | 24.44° C | 50% | 1010.3 hPa | 0 mm | - | - | - |
| 1787678725 | 24.44° C | 50% | 1010.4 hPa | 0 mm | - | - | - |
| 1787677825 | 24.44° C | 50% | 1010.4 hPa | 0 mm | - | - | - |
| 1787676925 | 24.44° C | 50% | 1010.2 hPa | 0 mm | - | - | - |
| 1787676025 | 24.44° C | 50% | 1010.3 hPa | 0 mm | - | - | - |
| 1787675125 | 25° C | 49% | 1010.4 hPa | 0 mm | - | - | - |
| 1787674225 | 25° C | 49% | 1010.4 hPa | 0 mm | - | - | - |
| 1787673325 | 25° C | 49% | 1010.7 hPa | 0 mm | - | - | - |
| 1787672425 | 25.56° C | 48% | 1010.5 hPa | 0 mm | - | - | - |
| 1787671525 | 25.56° C | 48% | 1010.5 hPa | 0 mm | - | - | - |
| 1787670625 | 25.56° C | 47% | 1010.6 hPa | 0 mm | - | - | - |
| 1787669725 | 26.67° C | 46% | 1010.8 hPa | 0 mm | - | - | - |
| 1787668825 | 26.67° C | 45% | 1010.7 hPa | 0 mm | - | - | - |
| 1787667925 | 26.67° C | 46% | 1010.8 hPa | 0 mm | - | - | - |
| 1787667025 | 26.11° C | 46% | 1010.9 hPa | 0 mm | - | - | - |
| 1787666125 | 25.56° C | 47% | 1011.1 hPa | 0 mm | - | - | - |
| 1787665225 | 26.11° C | 47% | 1011.4 hPa | 0 mm | - | - | - |
| 1787664325 | 25.56° C | 48% | 1011.3 hPa | 0 mm | - | - | - |
| 1787663425 | 26.11° C | 47% | 1011.3 hPa | 0 mm | - | - | - |
| 1787662526 | 26.11° C | 47% | 1011.4 hPa | 0 mm | - | - | - |
| 1787661626 | 25.56° C | 49% | 1011.5 hPa | 0 mm | - | - | - |
| 1787660726 | 25.56° C | 49% | 1011.5 hPa | 0 mm | - | - | - |
| 1787659826 | 25.56° C | 49% | 1011.7 hPa | 0 mm | - | - | - |
| 1787658926 | 25° C | 50% | 1011.7 hPa | 0 mm | - | - | - |
* Rain latest hour (hover to see other rain measurements)
** Current wind speed in m/s (hover to see current wind gust speed)